Location: Aiyekoto
(8.4333°N, 4.3667°E)
Time: 12:33:27
(UTC+00:00)

ADEOS - Pass Details

Date: 01 October 2020
Orbit: 792 x 794 km, 98.9° (Epoch: 27 October)

Event Time Altitude Azimuth Distance (km) Brightness Sun altitude
Rises 02:48:58 0° 42° (NE) 3,280 7.3 -40.8°
Reaches altitude 10° 02:52:09 10° 63° (ENE) 2,352 6.6 -40.0°
Maximum altitude 02:55:20 16° 101° (E) 1,941 6.1 -39.3°
Drops below altitude 10° 02:58:30 10° 139° (SE) 2,355 6.4 -38.5°
Sets 03:01:41 0° 160° (SSE) 3,285 7.0 -37.7°
